Overview Statistics Trail Chart Weather Telemetry Raw packets
 

This is the latest recevied weather packets stored in our database for station/object EA5CLU-13. If no packets are shown the sender has not sent any weather packets the latest 10 day(s).

<< 21 22 23 24 25 26 27 >>
Time Temp. Humidity Pressure Rain* Wind** Luminosity Snow
1787958879 16.11° C - 1022.9 hPa 0 mm - - -
1787958579 16.11° C - 1023 hPa 0 mm - - -
1787958279 16.11° C - 1023.1 hPa 0 mm - - -
1787957680 16.11° C - 1022.8 hPa 0 mm - - -
1787957383 16.67° C - 1022.8 hPa 0 mm - - -
1787957080 16.67° C - 1022.8 hPa 0 mm - - -
1787956780 17.22° C - 1022.6 hPa 0 mm - - -
1787956479 16.67° C - 1022.6 hPa 0 mm - - -
1787956180 16.67° C - 1022.8 hPa 0 mm - - -
1787955879 17.22° C - 1022.6 hPa 0 mm - - -
1787955580 17.22° C - 1022.5 hPa 0 mm - - -
1787955279 17.22° C - 1022.5 hPa 0 mm - - -
1787954980 17.78° C - 1022.5 hPa 0 mm - - -
1787954680 17.78° C - 1022.6 hPa 0 mm - - -
1787953479 19.44° C - 1022.5 hPa 0 mm - - -
1787953179 19.44° C - 1022.6 hPa 0 mm - - -
1787952880 20° C - 1022.4 hPa 0 mm - - -
1787952279 20° C - 1022.3 hPa 0 mm - - -
1787951979 20° C - 1022.2 hPa 0 mm - - -
1787951379 20° C - 1022.2 hPa 0 mm - - -
1787951080 20° C - 1022.2 hPa 0 mm - - -
1787950780 19.44° C - 1022.3 hPa 0 mm - - -
1787950180 19.44° C - 1022 hPa 0 mm - - -
1787949879 19.44° C - 1022 hPa 0 mm - - -
1787949579 0° C - - 0 mm - - -

* Rain latest hour (hover to see other rain measurements)
** Current wind speed in m/s (hover to see current wind gust speed)